Erie, PA

7:35 AM EDT on May 27, 2017 (GMT -0400)
Erie International

Weather History for KERI - March, 2013

Change the Weather History Date:

Sunday, March 17, 2013

  Actual Average Record
Temperature  
Mean Temperature 27 °F 36 °F  
Max Temperature 31 °F 44 °F 74 °F (1945)
Min Temperature 23 °F 28 °F 1 °F (1900)
Degree Days  
Heating Degree Days 38 29  
Month to date heating degree days 551 542  
Since 1 July heating degree days 4645 4907  
Cooling Degree Days 0 0  
Month to date cooling degree days 0 0  
Year to date cooling degree days 0 0  
Moisture  
Dew Point 19 °F    
Average Humidity 67    
Maximum Humidity 81    
Minimum Humidity 53    
Precipitation  
Precipitation 0.01 in 0.09 in 1.58 in (1936)
Month to date precipitation 1.17 1.53  
Year to date precipitation 7.68 6.87  
Snow  
Snow 0.20 in 0.40 in - ()
Month to date snowfall 10.6 8.8  
Since 1 July snowfall 89.8 92.8  
Snow Depth 3.00 in    
Sea Level Pressure  
Sea Level Pressure 30.17 in    
Wind  
Wind Speed 7 mph (North)    
Max Wind Speed 14 mph    
Max Gust Speed 17 mph    
Visibility 8 miles    
Events Snow    
T = Trace of Precipitation, MM = Missing Value Source: NWS Daily Summary

Daily Weather History Graph

Daily Weather History Graph

Search for Another Location

Airport or City:

Trip Planner

Search our weather history database for the weather conditions in past years. The results will help you decide how hot, cold, wet, or windy it might be!

Date:

Astronomy

Mar. 17, 2013 Rise Set
Actual Time 7:28 AM EDT 7:29 PM EDT
Civil Twilight 7:00 AM EDT 7:57 PM EDT
Nautical Twilight 6:28 AM EDT 8:30 PM EDT
Astronomical Twilight 5:55 AM EDT 9:03 PM EDT
Moon 10:34 AM EDT (3/17) 12:41 AM EDT (3/17)
Length of Visible Light 12h 56m
Length of Day
12h 01m
Waxing Crescent, 31% of the Moon is Illuminated
Mar 17
Waxing Crescent
Mar 19
First Quarter
Mar 27
Full
Apr 3
Last Quarter
Apr 10
New

Hourly Weather History & Observations

Time (EDT) Temp. Windchill Dew Point Humidity Pressure Visibility Wind Dir Wind Speed Gust Speed Precip Events Conditions
12:51 AM 24.1 °F 19.7 °F 19.0 °F 81% 30.04 in 10.0 mi South 3.5 mph - N/A   Overcast
1:51 AM 26.1 °F 19.4 °F 19.0 °F 75% 30.04 in 10.0 mi South 5.8 mph - N/A   Overcast
2:09 AM 26.6 °F 21.2 °F 19.4 °F 74% 30.02 in 10.0 mi SSW 4.6 mph - N/A   Overcast
2:48 AM 28.4 °F 20.4 °F 21.2 °F 74% 30.03 in 10.0 mi NW 8.1 mph - N/A   Overcast
2:51 AM 28.9 °F 21.1 °F 21.9 °F 75% 30.06 in 10.0 mi NW 8.1 mph - N/A   Overcast
3:51 AM 28.9 °F 21.9 °F 21.9 °F 75% 30.07 in 10.0 mi NW 6.9 mph - N/A   Overcast
4:51 AM 30.0 °F 23.2 °F 19.9 °F 66% 30.07 in 10.0 mi NW 6.9 mph - N/A   Overcast
5:51 AM 28.9 °F - 21.0 °F 72% 30.07 in 10.0 mi Calm Calm - N/A   Overcast
6:51 AM 28.9 °F - 21.0 °F 72% 30.11 in 10.0 mi Calm Calm - N/A   Overcast
7:40 AM 28.4 °F - 23.0 °F 80% 30.11 in 5.0 mi Calm Calm - 0.00 in Snow Light Snow
7:47 AM 28.4 °F 20.4 °F 23.0 °F 80% 30.11 in 2.5 mi NNW 8.1 mph - 0.00 in Snow Light Snow
7:51 AM 28.9 °F 21.1 °F 25.0 °F 85% 30.14 in 1.5 mi North 8.1 mph - 0.00 in Snow Light Snow
7:59 AM 28.4 °F 21.2 °F 26.6 °F 93% 30.12 in 1.5 mi North 6.9 mph - 0.01 in Snow Light Snow
8:13 AM 28.4 °F 19.1 °F 24.8 °F 86% 30.13 in 2.0 mi NNW 10.4 mph 16.1 mph 0.01 in Snow Light Snow
8:24 AM 28.4 °F 19.7 °F 24.8 °F 86% 30.13 in 1.5 mi North 9.2 mph - 0.01 in Snow Light Snow
8:31 AM 28.4 °F 22.2 °F 24.8 °F 86% 30.13 in 2.0 mi North 5.8 mph - 0.01 in Snow Light Snow
8:36 AM 28.4 °F 23.3 °F 24.8 °F 86% 30.14 in 3.0 mi North 4.6 mph - 0.01 in Snow Light Snow
8:51 AM 28.0 °F 21.7 °F 19.9 °F 72% 30.17 in 9.0 mi NNW 5.8 mph - 0.01 in   Overcast
9:51 AM 28.0 °F 17.5 °F 17.1 °F 63% 30.20 in 10.0 mi North 12.7 mph - N/A   Overcast
10:51 AM 28.9 °F 20.4 °F 16.0 °F 58% 30.22 in 10.0 mi North 9.2 mph - N/A   Mostly Cloudy
11:51 AM 30.0 °F 23.2 °F 17.1 °F 59% 30.25 in 10.0 mi North 6.9 mph - N/A   Clear
12:51 PM 30.0 °F 24.1 °F 17.1 °F 59% 30.25 in 10.0 mi North 5.8 mph - N/A   Clear
1:51 PM 30.9 °F 22.8 °F 19.0 °F 61% 30.26 in 10.0 mi North 9.2 mph - N/A   Clear
2:51 PM 30.2 °F 21.9 °F 17.6 °F 60% 30.21 in 10.0 mi NE 9.2 mph - N/A   Clear
3:51 PM 30.0 °F 22.4 °F 16.0 °F 56% 30.25 in 10.0 mi NNE 8.1 mph - N/A   Partly Cloudy
4:51 PM 30.2 °F 23.4 °F 15.8 °F 55% 30.23 in 10.0 mi North 6.9 mph - N/A   Clear
5:51 PM 30.0 °F 21.7 °F 15.1 °F 54% 30.26 in 10.0 mi North 9.2 mph - N/A   Clear
6:51 PM 28.0 °F 20.0 °F 15.1 °F 58% 30.27 in 10.0 mi NE 8.1 mph - N/A   Clear
7:51 PM 27.0 °F 20.5 °F 15.1 °F 61% 30.27 in 10.0 mi NE 5.8 mph - N/A   Clear
8:51 PM 26.1 °F 18.4 °F 16.0 °F 66% 30.28 in 10.0 mi ENE 6.9 mph - N/A   Clear
9:51 PM 25.0 °F 16.3 °F 15.1 °F 66% 30.30 in 10.0 mi ENE 8.1 mph - N/A   Clear
10:51 PM 24.1 °F 16.0 °F 14.0 °F 65% 30.29 in 10.0 mi East 6.9 mph - N/A   Clear
11:51 PM 24.1 °F 14.4 °F 14.0 °F 65% 30.27 in 10.0 mi ENE 9.2 mph - N/A   Clear